Regional Weather Roundup
Issued by NWS Green Bay, WI

Home | Current Version | Previous Version | Text Only | Print | Product List | Glossary On
Versions: 1 2 3 4 5 6 7 8 9 10 11 12 13 14 15 16 17 18 19 20 21 22 23 24 25 26 27 28 29 30 31 32 33 34 35 36 37 38 39 40 41 42 43 44 45 46 47 48 49 50
000
ASUS43 KGRB 212001
RWRGRB

NORTH-CENTRAL AND NORTHEAST WISCONSIN REGIONAL WEATHER ROUNDUP
NATIONAL WEATHER SERVICE GREEN BAY WI
200 PM CST THU NOV 21 2019

WIZ005-009-010>012-018-019-212100-
NORTH CENTRAL WISCONSIN

CITY           SKY/WX    TMP DP  RH WIND       PRES   REMARKS
IRONWOOD       LGT SNOW  28  27  96 NW13      29.78R VSB 1
MANITOWISH WTR LGT SNOW  29  29 100 N10G17    29.72R VSB 1
ARBOR VITAE    CLOUDY    33  30  90 N17G26    29.70R
EAGLE RIVER    LGT SNOW  32  29  90 N15G23    29.68R
LAND O LAKES   LGT SNOW  31  30  95 N13G24    29.69R
RHINELANDER    LGT SNOW  33  29  85 N13G22    29.67R FOG
PHILLIPS       CLOUDY    30  28  90 NW12G21   29.75R
ANTIGO         CLOUDY    34  32  92 N16G28    29.64R
TOMAHAWK       CLOUDY    32  29  89 NW14G24   29.71R
MERRILL        FLURRIES  35  32  89 N15G26    29.69R
$$

WIZ013-073-212100-
NORTHEAST WISCONSIN

CITY           SKY/WX    TMP DP  RH WIND       PRES   REMARKS
IRON MOUNTAIN  CLOUDY    36  30  79 NW16G32   29.60R
MARINETTE      CLOUDY    41  37  86 NW14G22   29.58R
OCONTO         CLOUDY    41  37  84 N9G23     29.58R
$$

WIZ017-030-035>037-045-212100-
CENTRAL WISCONSIN

CITY           SKY/WX    TMP DP  RH WIND       PRES   REMARKS
MEDFORD        CLOUDY    32  29  89 N16G22    29.73R
WAUSAU         CLOUDY    37  31  78 NW16G28   29.67R
MOSINEE        CLOUDY    36  32  87 NW16G26   29.69R
MARSHFIELD     CLOUDY    36  31  82 NW23G30   29.71R
WISC RAPIDS    CLOUDY    39  33  79 NW17G30   29.71R
STEVENS POINT  CLOUDY    37  32  85 NW12G21   29.69R
WAUPACA        CLOUDY    44  38  79 NW12      29.64R
SHAWANO        CLOUDY    42  37  83 NW8G17    29.61R
CLINTONVILLE   CLOUDY    41  35  78 NW12G21   29.63R
WAUTOMA        CLOUDY    42  36  79 NW18G28   29.67R
$$

WIZ038-039-048-051-212100-
FOX VALLEY

CITY           SKY/WX    TMP DP  RH WIND       PRES   REMARKS
NWS GREEN BAY  CLOUDY    44  39  82 NW15G24   29.58R
APPLETON       CLOUDY    43  41  93 NW16G23   29.58R
OSHKOSH        CLOUDY    45  40  82 NW16G23   29.60R
FOND DU LAC    CLOUDY    48  43  82 NW15      29.60R
$$

WIZ022-050-052-212100-
EAST CENTRAL WISCONSIN

CITY           SKY/WX    TMP DP  RH WIND       PRES   REMARKS
EPHRAIM        LGT RAIN  40  39  96 NW12G20   29.54R
WASHINGTON ISL DRIZZLE   41  39  93 N14       29.54R
STURGEON BAY   CLOUDY    42  41  96 NW16G22   29.56R
MANITOWOC      CLOUDY    46  44  93 NW15G24   29.56R
SHEBOYGAN      CLOUDY    48  45  89 NW18G30   29.55R
$$

LMZ563-521-522-541>543-212100-
LAKESHORE

STATION/POSITION TIME  TEMP    WIND        PRES    VSBY  WAVE
                       AIR SEA DIR/SP/G                  HT/PER
                 (UTC) (F)     (DEG/KT/KT) (MB)    (MI)  (FT/S)
SHEBOYGAN LKSHOR 1900   51     220/ 11/ 13  999.3F
KEWAUNEE LKSHORE 1924   45     320/  3/  7  999.5
SISTER BAY LKSHO 1927   42     310/ 10/ 12   N/A
CHAMBERS ISLAND  1940   42     270/ 13/ 19   N/A
MENOMINEE LKSHOR 1924   42 38  310/ 18/ 20 1000.6
$$



USA.gov is the U.S. government's official web portal to all federal, state and local government web resources and services.